Résultats sport de masse course à pied

Résultats : Cross Ouest France 2019 - 10 km Crédit Mutuel

Classement général Classement Catégorie Nom, prénom Catégorie Sexe Club Temps global
935 94 RONDEAU Christian V2 M 00:51:28
958 95 RENOU Pascal V2 M COURIR AU LUDE 00:51:38
978 96 TOUCHARD Jean-luc V2 M 00:51:47
991 97 HENRY Arnaud V2 M 00:51:53
992 98 GAUTRIN Gilles V2 M 00:51:53
995 99 BODIN DIDIER V2 M JA MONTFORT GESNOIS 00:51:55
999 8 PLECIS Celine V2 F 00:51:58
1005 9 BARBIER Catherine V2 F PATRIOTE BONNETABLE 00:52:01
1011 100 LOISON Thierry V2 M 00:52:03
1012 101 LE TERTRE Stephane V2 M 00:52:04
1014 102 GENETTI Marc V2 M 00:52:07
1016 103 SEGUI Pascal V2 M 00:52:08
1019 104 RIVAULT Jean paul V2 M 00:52:11
1028 105 BADIER philippe V2 M CREDIT MUTUEL 00:52:18
1053 10 AVIGNON Bettina V2 F US SAINT MARS LA BRIERE 00:52:30
1059 11 FAGOT Nicole V2 F LES GALOPINS BAILLARGEOIS 00:52:32
1070 106 DEWERDT denis V2 M 00:52:38
1074 107 DAGOSNEAU Teddy V2 M 00:52:41
1075 108 JARROSSAY Olivier V2 M 00:52:41
1079 109 MACE Stephane V2 M 00:52:44
1085 110 MORIN Sebastien V2 M 00:52:47
1086 111 GOUX Laurent V2 M 00:52:48
1097 112 ANTOINE Emmanuel V2 M 00:52:56
1103 12 LEMONNIER Catherine V2 F ASCE MUTUELLES DU MANS A 00:52:58
1104 113 PEAN Thierry V2 M 00:52:58
1114 114 RAVENEAU Laurent V2 M 00:53:03
1123 115 AUGEREAU Jean-François V2 M 00:53:08
1125 116 COUSIN Christian V2 M 00:53:09
1126 117 THOMAS Philippe V2 M 00:53:09
1137 118 BOULAY Laurent V2 M 00:53:18
1141 119 DI VINCENZO Guiseppe V2 M SARTHE RUNNING 00:53:20
1148 13 BEDOUET-LEVERT MAUD V2 F RUNNING AT LE MANS 00:53:24
1153 120 MACRAIGNE alain V2 M 00:53:27
1163 121 VAILLANT Stephane V2 M 00:53:31
1164 122 BACAR JANFFAR V2 M 00:53:32
1171 123 GRIMAULT DANIEL V2 M 00:53:39
1172 14 HEDOUIN Ingrid V2 F 00:53:39
1177 124 RICHARD THIERRY V2 M 00:53:40
1180 125 HARDY Bruno V2 M 00:53:41
1186 15 LEHUEN Marie-Laure V2 F S/L LE MANS A 72 00:53:44
1211 16 BOUCHER SYLVIE V2 F 00:53:57
1213 126 GAILLARD Olivier V2 M 00:53:58
1225 127 LEBRETON Christophe V2 M 00:54:05
1228 128 LERICHE Olivier V2 M S/L LE MANS A 72 00:54:08
1233 129 CADIOU PASCAL V2 M S/L FREE RUN 00:54:11
1235 130 BRUNEAU Christophe V2 M S/L LE MANS A 72 00:54:12
1236 131 GAUTIER Xavier V2 M 00:54:12
1239 132 BESNARDIERE Olivier V2 M ASCE MUTUELLES DU MANS A 00:54:13
1242 133 ASSABBANE STEPHANE V2 M 00:54:14
1244 134 GUY Jacques V2 M 00:54:15